Location: Grand Mazuras
(45.9128°N, 1.7636°E)
Time: 05:39:25
(UTC+00:00)

Cosmos 1386 Rocket - Pass Details

Date: 18 April 2021
Orbit: 928 x 1007 km, 83.0° (Epoch: 15 May)

Event Time Altitude Azimuth Distance (km) Brightness Sun altitude
Rises 22:26:35 0° 353° (N) 3,620 8.6 -29.8°
Reaches altitude 10° 22:29:06 10° 355° (N) 2,663 7.6 -30.0°
Enters shadow 22:34:39 68° 42° (NE) 1,000 4.5 -30.3°
